Location: Pasadena, ca
(34.1243°N, 118.1037°W)
Time: 12:39:44
(UTC-08:00)

Tiangong 2 - Pass Details

Date: 16 October 2017
Orbit: 387 x 389 km, 42.8° (Epoch: 18 December)

Event Time Altitude Azimuth Distance (km) Brightness Sun altitude
Exits shadow 06:18:28 - 313° (NW) 1,571 3.7 -9.1°
Reaches altitude 10° 06:18:53 10° 317° (NW) 1,419 3.5 -9.0°
Maximum altitude 06:21:40 26° 17° (NNE) 802 2.8 -8.4°
Drops below altitude 10° 06:24:26 10° 77° (ENE) 1,419 5.3 -7.9°
Sets 06:26:43 0° 90° (E) 2,274 7.4 -7.4°
